STARLINK-31210, 59033

Orbit data source: Space-Track

STARLINK-31210, 59033 is a payload satellite owned by SpaceX/Seattle (US) in LEO that was launched on Sun, 25 Feb 2024 UTC via an FALCON 9 launch vehicle from the Air Force Eastern Test Range (AFETR). Payload-class satellites include a variety of spacecraft equipped with specific instruments for various scientific and technological missions. These include communications satellites like Starlink; space stations such as the ISS; scientific satellites like the Hubble; Earth observation satellites from companies like Planet Labs, Umbra, and HawkEye 360; GPS; miniature CubeSats for education and research; and military/defense satellites.

Loading next visibility...
Identifier
59033, 2024-038L
Orbit
LEO
Country
Flag of USUS
Related business
Manufacturer
SpaceX/Seattle
Mission
Operational Commercial Communications
Bus & Motor
STARLINK V2M, Unknown motor
Mass
730 kg wet, ~700 kg dry
Launch date (UTC)
2024-02-25 (2 years ago)
Launch vehicle
FALCON 9
Launch site
Air Force Eastern Test Range (AFETR)
Object type
Payload
Rocket body
Debris
Shape & HBR
Box + 2 Pan, 17.7 m
Radar Cross Section
33.884 m², Large (>1 m²)

Expand to show TLE details & history
Last TLE update: 18 hours ago

TLE from 18 hours ago
0 STARLINK-31210
1 59033U 24038L   25348.85947369  .00000093  00000-0  12918-4 0  9997
2 59033  42.9996 142.7199 0001207 267.7780  92.2934 15.27571317101887
Epoch: 2025-12-14T20:37Z
TLE epoch observation values (Epoch: 2025-12-14T20:37:38.526Z)
Latitude
0.00001°
Longitude
109.54304°
Altitude
482.884 km
Speed
7.626 km/s
True Right ascension
09h 30m 52s
True Declination
0° 00' 00"
Sunlit
Object was in full shadow at epoch
Visualization orbit readout
Latitude
Unknown
Longitude
Unknown
Altitude
Unknown
Speed
Unknown
Apparent Right ascension
Unknown
Apparent Declination
Unknown
Sunlit
N/A
Visualization observer readout
Local Sidereal Time
13:26:12
Azimuth
Unknown
Elevation
Unknown
Doppler factor
Unknown
Orbital elements
Apogee altitude
485.849 km
Perigee altitude
484.192 km
Semi-major axis
6,863.157 km
Eccentricity
0.00012
Inclination
42.9996°
RAAN
142.7199°
Arg. of periapsis
267.778°
True anomaly
92.30722°
Mean anomaly
92.2934°
Eccentric anomaly
92.30031°
Mean motion
3.81731 °/min
Orbital period
94.31 mins
BSTAR
0.000012918
Loading maneuver chart data...
Computing Atmospheric mass density...
Loading historical data...
Loading historical data...
Loading historical data...
Loading historical data...
Loading historical data...
Loading historical data...
Loading historical data...

Documentation

Showing up to 5 results
|